W0KHZ Weather Reports


Display with metric or nautical units.
time (UTC)temp
F
wind
direction
speed
MPH
gust
MPH
rain 1hr
in
rain 24hr
in
rain mn
in
humidity
%
barometer
mb
20260508235519 70 163 1.0 7.0 0.00 0.00 0.00 26 999.8
20260508235017 70 103 2.0 6.0 0.00 0.00 0.00 25 999.9
20260508234515 70 310 3.0 9.0 0.00 0.00 0.00 26 999.9
20260508234033 71 299 1.0 4.0 0.00 0.00 0.00 25 999.9
20260508233532 71 323 2.0 4.0 0.00 0.00 0.00 24 1000.0
20260508233030 71 347 4.0 8.0 0.00 0.00 0.00 24 1000.2
20260508232528 72 327 3.0 9.0 0.00 0.00 0.00 24 1000.2
20260508232026 72 327 3.0 9.0 0.00 0.00 0.00 24 1000.1
20260508231544 72 195 4.0 8.0 0.00 0.00 0.00 24 1000.2
20260508231022 72 303 2.0 6.0 0.00 0.00 0.00 26 1000.3
20260508230520 72 258 1.0 4.0 0.00 0.00 0.00 26 1000.3
20260508230038 71 289 1.0 4.0 0.00 0.00 0.00 26 1000.3
20260508225516 71 299 2.0 8.0 0.00 0.00 0.00 25 1000.4
20260508225034 72 337 3.0 10.0 0.00 0.00 0.00 24 1000.5
20260508224532 72 3 3.0 11.0 0.00 0.00 0.00 25 1000.5
20260508224030 72 168 1.0 4.0 0.00 0.00 0.00 27 1000.4
20260508223528 71 229 2.0 3.0 0.00 0.00 0.00 26 1000.4
20260508223026 71 227 1.0 8.0 0.00 0.00 0.00 26 1000.6
20260508222524 71 293 3.0 10.0 0.00 0.00 0.00 26 1000.7
20260508222023 71 164 3.0 9.0 0.00 0.00 0.00 25 1000.7
20260508221520 71 127 2.0 8.0 0.00 0.00 0.00 25 1000.7
20260508221018 71 282 4.0 10.0 0.00 0.00 0.00 25 1000.8
20260508220515 72 333 2.0 7.0 0.00 0.00 0.00 26 1000.8
20260508220034 72 2 2.0 9.0 0.00 0.00 0.00 27 1000.7
20260508215532 72 139 2.0 7.0 0.00 0.00 0.00 26 1000.9
20260508215030 72 162 1.0 4.0 0.00 0.00 0.00 26 1000.9
20260508214528 72 141 2.0 4.0 0.00 0.00 0.00 25 1001.0
20260508214027 72 329 1.0 6.0 0.00 0.00 0.00 25 1001.1
20260508213524 72 285 2.0 6.0 0.00 0.00 0.00 26 1001.1
20260508213023 71 306 3.0 10.0 0.00 0.00 0.00 27 1001.1
20260508212521 71 142 3.0 9.0 0.00 0.00 0.00 27 1001.1
20260508212018 71 149 2.0 6.0 0.00 0.00 0.00 27 1001.3
20260508211516 71 218 3.0 8.0 0.00 0.00 0.00 25 1001.3
20260508211034 71 123 2.0 7.0 0.00 0.00 0.00 26 1001.4
20260508210532 71 224 3.0 13.0 0.00 0.00 0.00 25 1001.7
20260508210030 72 358 3.0 9.0 0.00 0.00 0.00 25 1001.5
20260508205529 72 200 2.0 4.0 0.00 0.00 0.00 25 1001.6
20260508205027 72 289 3.0 6.0 0.00 0.00 0.00 25 1001.8
20260508204525 72 299 2.0 6.0 0.00 0.00 0.00 24 1001.9
20260508204022 73 353 2.0 8.0 0.00 0.00 0.00 25 1002.0
20260508203521 73 347 3.0 9.0 0.00 0.00 0.00 25 1002.1
20260508203016 73 309 2.0 10.0 0.00 0.00 0.00 24 1002.0
20260508202555 73 230 3.0 13.0 0.00 0.00 0.00 25 1002.2
20260508202032 73 186 4.0 10.0 0.00 0.00 0.00 26 1002.4
20260508201530 73 174 3.0 9.0 0.00 0.00 0.00 27 1002.3
20260508201028 73 158 2.0 7.0 0.00 0.00 0.00 27 1002.5
20260508200526 73 164 3.0 9.0 0.00 0.00 0.00 26 1002.6
20260508200024 72 317 2.0 7.0 0.00 0.00 0.00 27 1002.6
20260508195522 72 292 2.0 10.0 0.00 0.00 0.00 26 1002.8
20260508195020 72 171 3.0 8.0 0.00 0.00 0.00 26 1002.8
20260508194517 73 306 3.0 8.0 0.00 0.00 0.00 26 1002.8
20260508194035 72 174 4.0 9.0 0.00 0.00 0.00 28 1002.9
20260508193533 72 169 3.0 8.0 0.00 0.00 0.00 27 1002.9
20260508193031 72 160 4.0 9.0 0.00 0.00 0.00 27 1003.0
20260508192548 72 174 3.0 7.0 0.00 0.00 0.00 27 1003.1
20260508192022 71 300 3.0 9.0 0.00 0.00 0.00 27 1003.2
20260508191539 71 284 2.0 3.0 0.00 0.00 0.00 27 1003.2
20260508191017 70 231 2.0 6.0 0.00 0.00 0.00 27 1003.4
20260508190535 70 318 2.0 6.0 0.00 0.00 0.00 26 1003.4
20260508190033 70 296 2.0 11.0 0.00 0.00 0.00 27 1003.6
20260508185531 70 234 2.0 9.0 0.00 0.00 0.00 28 1003.6
20260508185029 70 196 1.0 4.0 0.00 0.00 0.00 27 1003.8
20260508184527 70 158 4.0 8.0 0.00 0.00 0.00 28 1003.8
20260508184025 70 147 3.0 7.0 0.00 0.00 0.00 29 1003.8
20260508183523 70 156 2.0 6.0 0.00 0.00 0.00 26 1004.0
20260508183021 70 332 3.0 8.0 0.00 0.00 0.00 24 1004.0
20260508182519 70 287 3.0 11.0 0.00 0.00 0.00 26 1004.0
20260508182016 70 347 2.0 9.0 0.00 0.00 0.00 24 1004.1
20260508181535 70 331 3.0 6.0 0.00 0.00 0.00 25 1004.2
20260508181052 70 333 4.0 9.0 0.00 0.00 0.00 25 1004.2
20260508180531 70 206 4.0 7.0 0.00 0.00 0.00 29 1004.4
20260508180028 70 146 3.0 8.0 0.00 0.00 0.00 27 1004.5
20260508175526 70 174 3.0 7.0 0.00 0.00 0.00 28 1004.6
20260508175105 69 266 4.0 13.0 0.00 0.00 0.00 28 1004.6
20260508174522 69 171 3.0 10.0 0.00 0.00 0.00 28 1004.6
20260508174020 69 242 3.0 10.0 0.00 0.00 0.00 31 1004.7
20260508173517 69 161 4.0 9.0 0.00 0.00 0.00 32 1004.9
20260508173016 69 152 5.0 8.0 0.00 0.00 0.00 32 1004.9
20260508172534 68 161 3.0 7.0 0.00 0.00 0.00 32 1005.0
20260508172031 68 169 3.0 9.0 0.00 0.00 0.00 32 1005.1
20260508171530 68 157 3.0 11.0 0.00 0.00 0.00 31 1005.3
20260508171027 68 163 3.0 8.0 0.00 0.00 0.00 32 1005.2
20260508170546 68 189 2.0 6.0 0.00 0.00 0.00 31 1005.4
20260508170024 68 160 3.0 7.0 0.00 0.00 0.00 33 1005.6
20260508165522 68 155 5.0 11.0 0.00 0.00 0.00 34 1005.5
20260508165019 67 288 3.0 8.0 0.00 0.00 0.00 30 1005.7
20260508164516 67 176 3.0 7.0 0.00 0.00 0.00 32 1005.7
20260508164035 67 176 4.0 8.0 0.00 0.00 0.00 33 1005.8
20260508163527 67 207 2.0 4.0 0.00 0.00 0.00 34 1005.8
20260508163026 67 149 5.0 9.0 0.00 0.00 0.00 34 1005.9
20260508162524 67 150 4.0 8.0 0.00 0.00 0.00 34 1006.0
20260508162021 66 187 3.0 9.0 0.00 0.00 0.00 33 1006.3
20260508161518 66 173 3.0 6.0 0.00 0.00 0.00 33 1006.3
20260508161016 66 136 3.0 8.0 0.00 0.00 0.00 35 1006.2
20260508160534 66 300 1.0 7.0 0.00 0.00 0.00 34 1006.5
20260508160052 65 305 3.0 8.0 0.00 0.00 0.00 35 1006.4
20260508155530 65 175 3.0 7.0 0.00 0.00 0.00 38 1006.3
20260508155028 64 177 3.0 7.0 0.00 0.00 0.00 38 1006.5
20260508154527 64 174 2.0 6.0 0.00 0.00 0.00 37 1006.5
20260508154025 64 160 2.0 4.0 0.00 0.00 0.00 39 1006.5
20260508153523 63 157 2.0 6.0 0.00 0.00 0.00 40 1006.8
20260508153021 63 192 2.0 6.0 0.00 0.00 0.00 40 1006.8
20260508152518 62 192 2.0 6.0 0.00 0.00 0.00 42 1006.8
20260508152016 62 137 3.0 7.0 0.00 0.00 0.00 44 1006.8
20260508151555 61 130 2.0 4.0 0.00 0.00 0.00 44 1006.9
20260508151033 60 125 1.0 4.0 0.00 0.00 0.00 43 1007.0
20260508150531 60 110 1.0 4.0 0.00 0.00 0.00 45 1007.1
20260508150029 59 88 2.0 4.0 0.00 0.00 0.00 48 1007.1
20260508145527 58 71 1.0 3.0 0.00 0.00 0.00 50 1007.1
20260508145025 57 288 0.0 2.0 0.00 0.00 0.00 50 1007.2
20260508144524 57 0.0 0.0 0.00 0.00 0.00 50 1007.3
20260508144022 56 0.0 0.0 0.00 0.00 0.00 51 1007.3
20260508143519 55 0.0 0.0 0.00 0.00 0.00 51 1007.3
20260508143017 55 0.0 0.0 0.00 0.00 0.00 51 1007.5
20260508142515 54 287 0.0 1.0 0.00 0.00 0.00 53 1007.4
20260508142033 53 291 1.0 2.0 0.00 0.00 0.00 54 1007.4
20260508141532 52 0.0 0.0 0.00 0.00 0.00 54 1007.4
20260508141050 52 0.0 0.0 0.00 0.00 0.00 58 1007.4
20260508140528 51 0.0 0.0 0.00 0.00 0.00 60 1007.5
20260508140026 50 0.0 0.0 0.00 0.00 0.00 61 1007.5
20260508135525 49 0.0 0.0 0.00 0.00 0.00 63 1007.5
20260508135043 48 0.0 0.0 0.00 0.00 0.00 64 1007.7
20260508134521 47 0.0 0.0 0.00 0.00 0.00 65 1007.8
20260508134038 46 0.0 0.0 0.00 0.00 0.00 68 1007.6
20260508133516 45 0.0 0.0 0.00 0.00 0.00 73 1007.7
20260508133034 43 0.0 0.0 0.00 0.00 0.00 78 1007.8
20260508132532 41 0.0 0.0 0.00 0.00 0.00 80 1007.7
20260508132031 39 0.0 0.0 0.00 0.00 0.00 81 1007.8
20260508131548 38 0.0 0.0 0.00 0.00 0.00 82 1007.8
20260508131026 36 0.0 0.0 0.00 0.00 0.00 82 1008.0
20260508130525 35 0.0 0.0 0.00 0.00 0.00 82 1007.9
20260508130023 34 0.0 0.0 0.00 0.00 0.00 83 1008.0
20260508125521 33 0.0 0.0 0.00 0.00 0.00 83 1008.1
20260508125018 32 0.0 0.0 0.00 0.00 0.00 83 1008.1
20260508124516 32 0.0 0.0 0.00 0.00 0.00 83 1008.0
20260508124034 31 0.0 0.0 0.00 0.00 0.00 84 1008.0
20260508123553 31 0.0 0.0 0.00 0.00 0.00 83 1008.1
20260508123031 30 0.0 0.0 0.00 0.00 0.00 83 1007.9
20260508122549 30 0.0 0.0 0.00 0.00 0.00 83 1007.9
20260508122048 30 0.0 0.0 0.00 0.00 0.00 83 1007.9
20260508121526 30 0.0 0.0 0.00 0.00 0.00 83 1007.8
20260508121024 30 0.0 0.0 0.00 0.00 0.00 83 1007.8
20260508120522 29 0.0 0.0 0.00 0.00 0.00 83 1007.9
20260508120021 29 0.0 0.0 0.00 0.00 0.00 83 1007.8
20260508115518 29 0.0 0.0 0.00 0.00 0.00 83 1007.7
20260508115016 29 0.0 0.0 0.00 0.00 0.00 83 1007.8
20260508114533 29 0.0 0.0 0.00 0.00 0.00 83 1007.8
20260508114032 29 0.0 0.0 0.00 0.00 0.00 83 1007.7
20260508113530 29 0.0 0.0 0.00 0.00 0.00 83 1007.7
20260508113028 30 0.0 0.0 0.00 0.00 0.00 83 1007.7
20260508112547 30 0.0 0.0 0.00 0.00 0.00 82 1007.8
20260508112025 29 0.0 0.0 0.00 0.00 0.00 82 1007.7
20260508111543 29 0.0 0.0 0.00 0.00 0.00 82 1007.8
20260508111041 29 0.0 0.0 0.00 0.00 0.00 82 1007.7
20260508110518 29 0.0 0.0 0.00 0.00 0.00 82 1007.7
20260508110016 29 0.0 0.0 0.00 0.00 0.00 82 1007.7
20260508105615 29 0.0 0.0 0.00 0.00 0.00 82 1007.7
20260508105033 30 0.0 0.0 0.00 0.00 0.00 82 1007.7
20260508104551 30 0.0 0.0 0.00 0.00 0.00 81 1007.7
20260508104030 30 0.0 0.0 0.00 0.00 0.00 81 1007.8
20260508103528 30 0.0 0.0 0.00 0.00 0.00 81 1007.8
20260508103026 30 0.0 0.0 0.00 0.00 0.00 81 1007.9
20260508102524 30 0.0 0.0 0.00 0.00 0.00 81 1007.8
20260508102023 30 0.0 0.0 0.00 0.00 0.00 81 1007.8
20260508101520 30 0.0 0.0 0.00 0.00 0.00 80 1007.8
20260508101018 30 0.0 0.0 0.00 0.00 0.00 80 1007.8
20260508100516 30 0.0 0.0 0.00 0.00 0.00 80 1008.0
20260508100034 30 0.0 0.0 0.00 0.00 0.00 80 1007.9
20260508095533 30 0.0 0.0 0.00 0.00 0.00 80 1007.9
20260508095031 30 0.0 0.0 0.00 0.00 0.00 80 1008.0
20260508094529 30 0.0 0.0 0.00 0.00 0.00 81 1008.0
20260508094027 30 0.0 0.0 0.00 0.00 0.00 81 1008.0
20260508093525 30 0.0 0.0 0.00 0.00 0.00 81 1008.0
20260508093024 30 0.0 0.0 0.00 0.00 0.00 81 1008.0
20260508092522 30 0.0 0.0 0.00 0.00 0.00 80 1008.0
20260508092020 30 0.0 0.0 0.00 0.00 0.00 80 1008.0
20260508091517 30 0.0 0.0 0.00 0.00 0.00 79 1008.2
20260508091016 31 0.0 0.0 0.00 0.00 0.00 79 1008.1
20260508090534 31 0.0 0.0 0.00 0.00 0.00 79 1008.2
20260508090032 31 0.0 0.0 0.00 0.00 0.00 79 1008.2
20260508085531 31 0.0 0.0 0.00 0.00 0.00 78 1008.3
20260508085029 31 0.0 0.0 0.00 0.00 0.00 78 1008.2
20260508084547 31 0.0 0.0 0.00 0.00 0.00 78 1008.3
20260508084025 31 0.0 0.0 0.00 0.00 0.00 77 1008.2
20260508083523 31 0.0 0.0 0.00 0.00 0.00 78 1008.3
20260508083102 31 0.0 0.0 0.00 0.00 0.00 78 1008.3
20260508082520 32 0.0 0.0 0.00 0.00 0.00 77 1008.4
20260508082017 32 0.0 0.0 0.00 0.00 0.00 77 1008.3
20260508081515 32 0.0 0.0 0.00 0.00 0.00 77 1008.4
20260508081034 32 0.0 0.0 0.00 0.00 0.00 76 1008.4
20260508080532 32 0.0 0.0 0.00 0.00 0.00 76 1008.4
20260508080030 32 0.0 0.0 0.00 0.00 0.00 76 1008.4
20260508075528 32 0.0 0.0 0.00 0.00 0.00 76 1008.4
20260508075027 32 0.0 0.0 0.00 0.00 0.00 76 1008.4
20260508074525 32 0.0 0.0 0.00 0.00 0.00 77 1008.5
20260508074023 32 0.0 0.0 0.00 0.00 0.00 75 1008.4
20260508073521 33 0.0 0.0 0.00 0.00 0.00 74 1008.4
20260508073019 33 0.0 0.0 0.00 0.00 0.00 74 1008.5
20260508072537 33 0.0 0.0 0.00 0.00 0.00 74 1008.5
20260508072035 33 0.0 0.0 0.00 0.00 0.00 74 1008.5
20260508071553 33 0.0 0.0 0.00 0.00 0.00 75 1008.5
20260508071032 33 0.0 0.0 0.00 0.00 0.00 74 1008.6
20260508070530 33 0.0 0.0 0.00 0.00 0.00 73 1008.7
20260508070028 33 0.0 0.0 0.00 0.00 0.00 73 1008.7
20260508065526 33 0.0 0.0 0.00 0.00 0.00 73 1008.7
20260508065025 34 0.0 0.0 0.00 0.00 0.00 73 1008.8
20260508064523 34 0.0 0.0 0.00 0.00 0.00 73 1008.8
20260508064041 34 0.0 0.0 0.00 0.00 0.00 73 1008.9
20260508063519 34 0.0 0.0 0.00 0.00 0.00 73 1008.8
20260508063017 34 0.0 0.0 0.00 0.00 0.00 72 1008.9
20260508062536 34 0.0 0.0 0.00 0.00 0.00 71 1009.0
20260508062033 34 0.0 0.0 0.00 0.00 0.00 71 1009.1
20260508061532 34 0.0 0.0 0.00 0.00 0.00 72 1009.1
20260508061030 34 0.0 0.0 0.00 0.00 0.00 71 1009.0
20260508060528 35 0.0 0.0 0.00 0.00 0.00 69 1009.2
20260508060026 35 0.0 0.0 0.00 0.00 0.00 68 1009.1
20260508055525 36 0.0 0.0 0.00 0.00 0.00 67 1009.1
20260508055023 36 0.0 0.0 0.00 0.00 0.00 68 1009.0
20260508054521 36 0.0 0.0 0.00 0.00 0.00 68 1009.0
20260508054019 35 0.0 0.0 0.00 0.00 0.00 69 1009.1
20260508053516 35 0.0 0.0 0.00 0.00 0.00 70 1009.2
20260508053035 36 0.0 0.0 0.00 0.00 0.00 69 1009.2
20260508052533 36 0.0 0.0 0.00 0.00 0.00 67 1009.2
20260508052031 36 0.0 0.0 0.00 0.00 0.00 67 1009.2
20260508051530 36 0.0 0.0 0.00 0.00 0.00 67 1009.2
20260508051028 36 0.0 0.0 0.00 0.00 0.00 68 1009.2
20260508050526 36 0.0 0.0 0.00 0.00 0.00 67 1009.3
20260508050024 36 0.0 0.0 0.00 0.00 0.00 66 1009.3
20260508045523 36 0.0 0.0 0.00 0.00 0.00 66 1009.2
20260508045021 37 0.0 0.0 0.00 0.00 0.00 67 1009.2
20260508044538 37 0.0 0.0 0.00 0.00 0.00 65 1009.2
20260508044016 37 0.0 0.0 0.00 0.00 0.00 65 1009.3
20260508043534 37 0.0 0.0 0.00 0.00 0.00 65 1009.3
20260508043053 37 0.0 0.0 0.00 0.00 0.00 64 1009.4
20260508042611 37 0.0 0.0 0.00 0.00 0.00 64 1009.4
20260508042029 38 0.0 0.0 0.00 0.00 0.00 64 1009.4
20260508041527 38 0.0 0.0 0.00 0.00 0.00 64 1009.4
20260508041026 38 0.0 0.0 0.00 0.00 0.00 63 1009.4
20260508040524 38 0.0 0.0 0.00 0.00 0.00 61 1009.3
20260508040022 39 0.0 0.0 0.00 0.00 0.00 62 1009.4
20260508035521 39 0.0 0.0 0.00 0.00 0.00 61 1009.3
20260508035018 39 0.0 0.0 0.00 0.00 0.00 60 1009.3
20260508034516 39 0.0 0.0 0.00 0.00 0.00 59 1009.2
20260508034034 39 0.0 0.0 0.00 0.00 0.00 61 1009.4
20260508033532 40 0.0 0.0 0.00 0.00 0.00 59 1009.3
20260508033030 40 0.0 0.0 0.00 0.00 0.00 58 1009.3
20260508032529 41 0.0 0.0 0.00 0.00 0.00 56 1009.2
20260508032027 41 0.0 0.0 0.00 0.00 0.00 55 1009.2
20260508031525 41 0.0 0.0 0.00 0.00 0.00 56 1009.3
20260508031023 41 0.0 0.0 0.00 0.00 0.00 55 1009.2
20260508030521 41 0.0 0.0 0.00 0.00 0.00 56 1009.1
20260508030019 42 0.0 0.0 0.00 0.00 0.00 56 1009.2
20260508025517 42 0.0 0.0 0.00 0.00 0.00 57 1009.1
20260508025035 42 0.0 0.0 0.00 0.00 0.00 55 1009.1
20260508024533 43 0.0 0.0 0.00 0.00 0.00 54 1009.1
20260508024051 43 0.0 0.0 0.00 0.00 0.00 53 1009.0
20260508023529 44 0.0 0.0 0.00 0.00 0.00 51 1009.1
20260508023048 44 0.0 0.0 0.00 0.00 0.00 50 1009.1
20260508022526 44 0.0 0.0 0.00 0.00 0.00 51 1008.9
20260508022024 44 0.0 0.0 0.00 0.00 0.00 50 1008.8
20260508021522 44 0.0 0.0 0.00 0.00 0.00 50 1008.7
20260508021020 45 0.0 0.0 0.00 0.00 0.00 49 1008.7
20260508020537 45 0.0 0.0 0.00 0.00 0.00 49 1008.7
20260508020015 46 0.0 0.0 0.00 0.00 0.00 48 1008.5
20260508015534 46 0.0 0.0 0.00 0.00 0.00 46 1008.5
20260508015032 47 0.0 0.0 0.00 0.00 0.00 44 1008.5
20260508014530 47 0.0 0.0 0.00 0.00 0.00 43 1008.5
20260508014028 48 0.0 0.0 0.00 0.00 0.00 43 1008.4
20260508013526 48 0.0 0.0 0.00 0.00 0.00 42 1008.3
20260508013024 49 0.0 0.0 0.00 0.00 0.00 41 1008.4
20260508012522 50 0.0 0.0 0.00 0.00 0.00 40 1008.4
20260508012040 51 0.0 0.0 0.00 0.00 0.00 39 1008.2
20260508011518 51 0.0 0.0 0.00 0.00 0.00 36 1008.3
20260508011016 52 0.0 0.0 0.00 0.00 0.00 35 1008.3
20260508010534 52 0.0 0.0 0.00 0.00 0.00 34 1008.2
20260508010032 53 0.0 0.0 0.00 0.00 0.00 33 1008.2
20260508005530 54 0.0 0.0 0.00 0.00 0.00 33 1008.1
20260508005029 54 294 0.0 1.0 0.00 0.00 0.00 32 1008.1
20260508004527 54 296 1.0 3.0 0.00 0.00 0.00 31 1008.1
20260508004025 55 310 0.0 1.0 0.00 0.00 0.00 31 1008.1
20260508003523 55 311 1.0 3.0 0.00 0.00 0.00 31 1008.0
20260508003021 55 306 1.0 3.0 0.00 0.00 0.00 30 1008.0
20260508002518 55 297 2.0 4.0 0.00 0.00 0.00 30 1008.0
20260508002056 56 299 3.0 10.0 0.00 0.00 0.00 30 1007.9
20260508001534 56 294 3.0 8.0 0.00 0.00 0.00 30 1007.9
20260508001032 56 306 2.0 6.0 0.00 0.00 0.00 30 1007.8
20260508000530 56 294 2.0 6.0 0.00 0.00 0.00 29 1007.8
20260508000028 56 291 3.0 7.0 0.00 0.00 0.00 30 1007.8